Location: Auckland
(36.8670°S, 174.7670°E)
Time: 15:21:03
(UTC+12:00)

ISS - Visible Passes

Search period start: 25 June 2019 00:00
Search period end: 05 July 2019 00:00
Orbit: 408 x 418 km, 51.6° (Epoch: 25 June)

Date Brightness Start Highest point End Pass type
(mag) Time Alt. Az. Time Alt. Az. Time Alt. Az.
25 Jun -3.2 18:16:15 10° WNW 18:19:34 54° SW 18:21:47 19° SE visible
26 Jun -1.4 19:04:53 10° WSW 19:07:05 16° SSW 19:07:13 16° SSW visible
27 Jun -1.8 18:14:33 10° W 18:17:20 23° SSW 18:19:46 12° SSE visible
29 Jun -1.2 18:13:37 10° SW 18:15:15 13° SSW 18:16:55 10° S visible
